Location: Peterborough
(44.3091°N, 78.3197°W)
Time: 03:04:53
(UTC-04:00)

S-56A Canister/Altair - Pass Details

Date: 30 March 2023
Orbit: 639 x 2492 km, 38.9° (Epoch: 08 June)

Event Time Altitude Azimuth Distance (km) Brightness Sun altitude
Rises 19:08:43 0° 241° (WSW) 4,467 12.6 4.4°
Reaches altitude 10° 19:11:22 10° 237° (WSW) 3,712 12.1 3.9°
Maximum altitude 19:21:15 60° 161° (SSE) 2,230 9.8 2.1°
Drops below altitude 10° 19:35:01 10° 87° (E) 5,051 11.0 -0.3°
Enters shadow 19:39:16 - 85° (E) 6,143 11.5 -1.1°
Sets 19:39:16 0° 85° (E) 6,144 11.5 -1.1°
